Regional Weather Roundup
Issued by NWS

Home | Current Version | Previous Version | Text Only | Print | Product List | Glossary On
Versions: 1 2 3 4 5 6 7 8 9 10 11 12 13 14 15 16 17 18 19 20 21 22 23 24 25 26 27 28 29 30 31 32 33 34 35 36 37 38 39 40 41 42 43 44 45 46 47 48 49 50
000
ASUS43 KLOT 231721
RWRIL

ILLINOIS REGIONAL WEATHER ROUNDUP
NATIONAL WEATHER SERVICE CHICAGO/ROMEOVILLE IL
1200 PM CDT SAT MAY 23 2015

NOTE: "FAIR" INDICATES FEW OR NO CLOUDS BELOW 12,000 FEET WITH NO
SIGNIFICANT WEATHER AND/OR OBSTRUCTIONS TO VISIBILITY.

* THESE STATIONS ARE NOT UNDER NWS QUALITY CONTROL. THEY ALSO MAY NOT
  REPORT WEATHER SUCH AS PRECIPITATION OR FOG.

ILZ001-002-007-009-015-016-024-231800-
NORTHWEST ILLINOIS

CITY           SKY/WX    TMP DP  RH WIND       PRES   REMARKS
MOLINE         SUNNY     77  46  33 SE9       30.28S
STERLING*      SUNNY     79  45  29 S8        30.28F
SAVANNA*       SUNNY     75  45  33 SW8       30.28F
$$

ILZ003-004-008-010-011-017-018-231800-
NORTH CENTRAL ILLINOIS

CITY           SKY/WX    TMP DP  RH WIND       PRES   REMARKS
ROCKFORD       PTSUNNY   76  43  30 SW10      30.31S
FREEPORT*      SUNNY     74  45  35 SW9       30.31S
ROCHELLE*      SUNNY     76  41  28 SW14G20   30.30S
DE KALB*       SUNNY     73  44  35 S10G17    30.31F
PERU*          SUNNY     78  40  25 W6        30.30F
$$

ILZ005-006-012>014-019>023-231800-
NORTHEAST ILLINOIS

CITY           SKY/WX    TMP DP  RH WIND       PRES   REMARKS
CHICAGO-OHARE  MOSUNNY   74  43  32 S10       30.30F
CHICAGO-MIDWAY MOSUNNY   77  43  29 S12       30.31F
AURORA         SUNNY     76  44  32 S9        30.31F
LANSING*       SUNNY     74  43  33 SW8       30.32S
JOLIET*        SUNNY     75  50  40 SE7       30.31S
WAUKEGAN       SUNNY     69  40  34 SE12      30.31F
DUPAGE AIRPORT SUNNY     74  45  35 S12       30.30F
KANKAKEE*      SUNNY     78  49  37 SW6       30.32S
WHEELING       SUNNY     74  41  30 S7        30.32F
MORRIS*        SUNNY     77  43  29 S10G16    30.29F
ROMEOVILLE*    SUNNY     75  43  32 SE8       30.31F
NORTHERLY ISL    N/A     62  44  51 E2          N/A
$$

LMZ740>746-231800-
SOUTHERN LAKE MICHIGAN

STATION/POSITION SKY/WX   TEMP    WIND        PRES    VSBY  WAVE
                          AIR SEA DIR/SP/G                  HT/PER
                          (F)     (DEG/KT/KT) (MB)    (MI)  (FT/S)
SOUTHERN BUOY              43 38  140/  6/  6 1028.1F         0
HARRISON CRIB              62     110/ 12/ 13   N/A
BURNHAM HARBOR             63      90/  5       N/A
CALUMET HARBOR             66      70/  6/  9   N/A
BURNS HARBOR               73     180/ 10/ 15 1027.4F
MICHIGAN CITY              72     130/  7/ 11   N/A
MICHIGAN CITY 6N           65 54  180/  6/  8   N/A           1
ST. JOSEPH                 62 57  360/  4/  4   N/A           1
$$

ILZ025>027-034>036-040-047-049-050-058-095>099-231800-
WEST-CENTRAL ILLINOIS

CITY           SKY/WX    TMP DP  RH WIND       PRES   REMARKS
QUINCY         MOSUNNY   73  49  42 S9        30.29S
GALESBURG*     MOSUNNY   74  49  40 S9        30.30S
MACOMB*        MOSUNNY   76  49  39 S13       30.31F
JACKSONVILLE*  PTSUNNY   77  46  33 S9        30.31S
PITTSFIELD*    PTSUNNY   74  50  43 S9G17     30.31S
$$

ILZ028>032-037-038-041>044-048-051>054-059>061-231800-
CENTRAL ILLINOIS

CITY           SKY/WX    TMP DP  RH WIND       PRES   REMARKS
PONTIAC        SUNNY     80  42  26 S14G20    30.31S
BLOOMINGTON    MOSUNNY   76  49  38 S10       30.32F
DECATUR        MOSUNNY   76  49  38 S12       30.32F
PEORIA         MOSUNNY   77  51  40 VRB7      30.30F
LACON*         SUNNY     75  46  36 W6        30.29F
LINCOLN*       MOSUNNY   78  49  36 S12       30.29F
SPRINGFIELD    MOSUNNY   77  51  40 S8        30.31S
TAYLORVILLE    MOSUNNY   73  50  43 SE10G17   30.32S
$$

ILZ033-039-045-046-055>057-062-063-231800-
EAST-CENTRAL ILLINOIS

CITY           SKY/WX    TMP DP  RH WIND       PRES   REMARKS
CHAMPAIGN      MOSUNNY   79  44  28 S10G20    30.32F
DANVILLE*      SUNNY     77  45  32 S9G17     30.31F
RANTOUL*       MOSUNNY   79  46  31 S7G16     30.32F
MATTOON        MOSUNNY   74  51  44 S10G17    30.33F
PARIS*         MOSUNNY   77  47  34 S12       30.35S
$$

ILZ079-100>102-231800-
SOUTHWEST ILLINOIS

CITY           SKY/WX    TMP DP  RH WIND       PRES   REMARKS
BELLEVILLE     MOSUNNY   76  54  47 S12       30.30S
CAHOKIA*       PTSUNNY   76  51  41 VRB7      30.30F
SPARTA*        PTSUNNY   73  52  48 S12       30.32F
$$

ILZ064>066-069>071-074>076-080>082-084>086-088>090-092>094-231800-
SOUTH-CENTRAL ILLINOIS

CITY           SKY/WX    TMP DP  RH WIND       PRES   REMARKS
CARBONDALE     MOSUNNY   75  50  41 SE12      30.32F
CAIRO*         MOSUNNY   75  50  40 SE7       30.31S
EFFINGHAM*     PTSUNNY   74  47  37 S5        30.35S
MARION         MOSUNNY   75  52  43 SE12      30.33F
MT. VERNON     SUNNY     75  52  43 SE12G17   30.34S
CENTRALIA*     MOSUNNY   77  46  33 S13       30.33S
SALEM*         SUNNY     77  46  32 SE7       30.33F
METROPOLIS*    SUNNY     75  51  43 E9        30.31F
$$

ILZ067-068-072-073-078-083-087-091-231800-
SOUTHEAST ILLINOIS

CITY           SKY/WX    TMP DP  RH WIND       PRES   REMARKS
LAWRENCEVILLE  PTSUNNY   76  52  43 SE10      30.35F
FLORA*         PTSUNNY   75  51  42 SE8       30.34F
FAIRFIELD*     SUNNY     75  53  45 S8        30.32F
HARRISBURG*    SUNNY     76  49  38 SE12G17   30.34S
ROBINSON*      PTSUNNY   75  50  41 SE7G16    30.35F
CARMI*         SUNNY     77  40  25 S10G18    30.33F
$$

ABBREVIATIONS USED IN REMARKS
   TC - TEMPERATURE IN CELSIUS
  WCI - WIND CHILL INDEX
   HX - HEAT INDEX
  VSB - VISIBILITY
$$




USA.gov is the U.S. government's official web portal to all federal, state and local government web resources and services.